When you browse on this site, cookies collect data to enhance your experience and personalize the content and advertising you see.
Visit our Privacy Policy to learn more. By continuing to use the site, you agree to this use of cookies and data.
  • In Deutschland
  • Länderverzeichnis
  • Für 7 Tage
  • Wassertemperatur
  • Wetterkarte
  • Widgets
  • user-avatar
    Anmelden

    Stündliche Wetter Gornyy

    Heute, 19 Oktober, Samstag

    Zeit Temperatur Niederschläge Wind Luftdruck Luftfeuchtigkeit
    00:00 -5°C° 0 mm 4 m/S 751 mmHg 87%
    01:00 -7°C° 0 mm 4 m/S 751 mmHg 87%
    02:00 -7°C° 0 mm 4 m/S 751 mmHg 87%
    03:00 -8°C° 0 mm 4 m/S 752 mmHg 87%
    04:00 -8°C° 0 mm 3 m/S 752 mmHg 89%
    05:00 -8°C° 0 mm 3 m/S 753 mmHg 89%
    06:00 -9°C° 0 mm 3 m/S 753 mmHg 90%
    07:00 -9°C° 0 mm 3 m/S 753 mmHg 90%
    08:00 -8°C° 0 mm 3 m/S 754 mmHg 86%
    09:00 -8°C° 0 mm 4 m/S 755 mmHg 82%
    10:00 -5°C° 0 mm 4 m/S 755 mmHg 78%
    11:00 -5°C° 0 mm 4 m/S 755 mmHg 76%
    12:00 -5°C° 0 mm 3 m/S 755 mmHg 75%
    13:00 -4°C° 0 mm 3 m/S 755 mmHg 74%
    14:00 -5°C° 0 mm 3 m/S 756 mmHg 77%
    15:00 -4°C° 0 mm 2 m/S 756 mmHg 80%
    16:00 -4°C° 0 mm 2 m/S 757 mmHg 82%
    17:00 -5°C° 0 mm 2 m/S 757 mmHg 84%
    18:00 -6°C° 0 mm 2 m/S 757 mmHg 86%
    19:00 -7°C° 0 mm 2 m/S 758 mmHg 87%
    20:00 -6°C° 0 mm 1 m/S 758 mmHg 87%
    21:00 -6°C° 0 mm 1 m/S 759 mmHg 87%
    22:00 -7°C° 0 mm 1 m/S 759 mmHg 87%
    23:00 -7°C° 0 mm 1 m/S 759 mmHg 88%

    Morgen, 20 Oktober, Sonntag

    Zeit Temperatur Niederschläge Wind Luftdruck Luftfeuchtigkeit
    00:00 -7°C° 0 mm 1 m/S 759 mmHg 88%
    01:00 -7°C° 0 mm 1 m/S 759 mmHg 89%
    02:00 -7°C° 0 mm 1 m/S 760 mmHg 89%
    03:00 -7°C° 0 mm 1 m/S 760 mmHg 89%
    04:00 -7°C° 0 mm 1 m/S 760 mmHg 90%
    05:00 -7°C° 0 mm 1 m/S 760 mmHg 90%
    06:00 -8°C° 0 mm 2 m/S 760 mmHg 90%
    07:00 -8°C° 0 mm 2 m/S 760 mmHg 91%
    08:00 -7°C° 0 mm 2 m/S 760 mmHg 85%
    09:00 -6°C° 0 mm 3 m/S 760 mmHg 80%
    10:00 -5°C° 0 mm 4 m/S 760 mmHg 75%
    11:00 -4°C° 0 mm 4 m/S 760 mmHg 73%
    12:00 -3°C° 0 mm 4 m/S 759 mmHg 71%
    13:00 -3°C° 0 mm 4 m/S 759 mmHg 68%
    14:00 -3°C° 0 mm 4 m/S 759 mmHg 71%
    15:00 -4°C° 0 mm 4 m/S 758 mmHg 73%
    16:00 -4°C° 0 mm 4 m/S 758 mmHg 76%
    17:00 -5°C° 0 mm 4 m/S 758 mmHg 79%
    18:00 -5°C° 0 mm 4 m/S 758 mmHg 82%
    19:00 -7°C° 0 mm 4 m/S 758 mmHg 85%
    20:00 -7°C° 0 mm 4 m/S 758 mmHg 85%
    21:00 -7°C° 0 mm 4 m/S 757 mmHg 85%
    22:00 -7°C° 0 mm 4 m/S 757 mmHg 84%
    23:00 -7°C° 0 mm 4 m/S 757 mmHg 82%

    übermorgen, 21 Oktober, Montag

    Zeit Temperatur Niederschläge Wind Luftdruck Luftfeuchtigkeit
    00:00 -5°C° 0 mm 4 m/S 756 mmHg 80%
    01:00 -5°C° 0 mm 4 m/S 756 mmHg 78%
    02:00 -4°C° 0 mm 4 m/S 756 mmHg 77%
    03:00 -4°C° 0 mm 4 m/S 755 mmHg 76%
    04:00 -3°C° 0 mm 4 m/S 755 mmHg 75%
    05:00 -3°C° 0.4 mm 4 m/S 755 mmHg 80%
    06:00 -3°C° 0.4 mm 4 m/S 754 mmHg 85%
    07:00 -2°C° 0.4 mm 4 m/S 754 mmHg 89%
    08:00 -2°C° 0.5 mm 4 m/S 754 mmHg 89%
    09:00 -1°C° 0.5 mm 4 m/S 754 mmHg 89%
    10:00 -1°C° 0.5 mm 4 m/S 754 mmHg 89%
    11:00 -1°C° 0 mm 4 m/S 754 mmHg 88%
    12:00 0°C° 0 mm 4 m/S 754 mmHg 88%
    13:00 0°C° 0 mm 4 m/S 754 mmHg 87%
    14:00 0°C° 0 mm 4 m/S 754 mmHg 88%
    15:00 +1°C° 0 mm 3 m/S 753 mmHg 89%
    16:00 +1°C° 0 mm 3 m/S 753 mmHg 90%
    17:00 +1°C° 0 mm 3 m/S 753 mmHg 91%
    18:00 +1°C° 0 mm 3 m/S 753 mmHg 92%
    19:00 +1°C° 0 mm 3 m/S 753 mmHg 92%
    20:00 +1°C° 0 mm 3 m/S 752 mmHg 93%
    21:00 +1°C° 0 mm 3 m/S 752 mmHg 93%
    22:00 +1°C° 0 mm 3 m/S 751 mmHg 94%
    23:00 +1°C° 0 mm 3 m/S 750 mmHg 94%

    22 Oktober, Dienstag

    Zeit Temperatur Niederschläge Wind Luftdruck Luftfeuchtigkeit
    00:00 +1°C° 0 mm 4 m/S 750 mmHg 94%
    01:00 +1°C° 0 mm 4 m/S 749 mmHg 94%
    02:00 +1°C° 0.1 mm 4 m/S 748 mmHg 92%
    03:00 +2°C° 0.1 mm 5 m/S 748 mmHg 90%
    04:00 +2°C° 0.1 mm 5 m/S 747 mmHg 89%
    05:00 +2°C° 0.1 mm 5 m/S 746 mmHg 88%
    06:00 +2°C° 0.1 mm 6 m/S 746 mmHg 86%
    07:00 +3°C° 0.1 mm 6 m/S 745 mmHg 85%
    08:00 +3°C° 0.3 mm 6 m/S 744 mmHg 85%
    09:00 +3°C° 0.3 mm 6 m/S 744 mmHg 84%
    10:00 +4°C° 0.3 mm 6 m/S 743 mmHg 83%
    11:00 +4°C° 0 mm 7 m/S 742 mmHg 83%
    12:00 +4°C° 0 mm 7 m/S 742 mmHg 82%
    13:00 +5°C° 0 mm 7 m/S 742 mmHg 81%
    14:00 +5°C° 0 mm 7 m/S 741 mmHg 82%
    15:00 +4°C° 0 mm 7 m/S 741 mmHg 83%
    16:00 +4°C° 0 mm 7 m/S 741 mmHg 84%
    17:00 +4°C° 0.1 mm 6 m/S 741 mmHg 86%
    18:00 +4°C° 0.1 mm 6 m/S 742 mmHg 87%
    19:00 +6°C° 0.1 mm 5 m/S 742 mmHg 89%
    20:00 +5°C° 0 mm 5 m/S 742 mmHg 89%
    21:00 +5°C° 0 mm 4 m/S 742 mmHg 90%
    22:00 +4°C° 0 mm 4 m/S 743 mmHg 90%
    23:00 +4°C° 0 mm 4 m/S 743 mmHg 89%

    23 Oktober, Mittwoch

    Zeit Temperatur Niederschläge Wind Luftdruck Luftfeuchtigkeit
    00:00 +3°C° 0 mm 4 m/S 743 mmHg 89%
    01:00 +2°C° 0 mm 5 m/S 743 mmHg 88%
    02:00 +1°C° 0 mm 4 m/S 743 mmHg 87%
    03:00 +1°C° 0 mm 4 m/S 744 mmHg 86%
    04:00 0°C° 0 mm 4 m/S 744 mmHg 85%
    05:00 -1°C° 0 mm 4 m/S 744 mmHg 85%
    06:00 -1°C° 0 mm 4 m/S 745 mmHg 85%
    07:00 -1°C° 0 mm 4 m/S 745 mmHg 86%
    08:00 -1°C° 0 mm 4 m/S 746 mmHg 84%
    09:00 0°C° 0 mm 4 m/S 746 mmHg 82%
    10:00 0°C° 0 mm 4 m/S 746 mmHg 80%
    11:00 +2°C° 0 mm 3 m/S 747 mmHg 79%
    12:00 +2°C° 0 mm 3 m/S 747 mmHg 77%
    13:00 +2°C° 0 mm 3 m/S 747 mmHg 76%
    14:00 +3°C° 0 mm 2 m/S 747 mmHg 77%
    15:00 +3°C° 0 mm 2 m/S 747 mmHg 79%
    16:00 +2°C° 0 mm 2 m/S 747 mmHg 80%
    17:00 +3°C° 0 mm 1 m/S 747 mmHg 83%
    18:00 +2°C° 0 mm 1 m/S 748 mmHg 85%
    19:00 +2°C° 0 mm 1 m/S 748 mmHg 87%
    20:00 +1°C° 0 mm 1 m/S 748 mmHg 88%
    21:00 +1°C° 0 mm 1 m/S 748 mmHg 90%
    22:00 -1°C° 0 mm 2 m/S 748 mmHg 91%
    23:00 -1°C° 0 mm 2 m/S 747 mmHg 91%

    24 Oktober, Donnerstag

    Zeit Temperatur Niederschläge Wind Luftdruck Luftfeuchtigkeit
    00:00 -1°C° 0 mm 2 m/S 747 mmHg 90%
    01:00 -1°C° 0 mm 2 m/S 747 mmHg 90%
    02:00 -1°C° 0 mm 2 m/S 746 mmHg 90%
    03:00 -1°C° 0 mm 3 m/S 746 mmHg 89%
    04:00 -1°C° 0 mm 3 m/S 746 mmHg 89%
    05:00 0°C° 0 mm 3 m/S 746 mmHg 89%
    06:00 -1°C° 0 mm 4 m/S 745 mmHg 89%
    07:00 0°C° 0 mm 4 m/S 745 mmHg 89%
    08:00 +1°C° 0 mm 4 m/S 745 mmHg 86%
    09:00 +2°C° 0 mm 5 m/S 744 mmHg 82%
    10:00 +3°C° 0 mm 5 m/S 744 mmHg 79%
    11:00 +5°C° 0 mm 5 m/S 744 mmHg 80%
    12:00 +5°C° 0 mm 5 m/S 744 mmHg 81%
    13:00 +5°C° 0 mm 5 m/S 744 mmHg 82%
    14:00 +5°C° 0 mm 4 m/S 744 mmHg 84%
    15:00 +5°C° 0 mm 4 m/S 744 mmHg 86%
    16:00 +5°C° 0 mm 4 m/S 743 mmHg 88%
    17:00 +5°C° 0 mm 4 m/S 744 mmHg 89%
    18:00 +5°C° 0 mm 4 m/S 744 mmHg 90%
    19:00 +4°C° 0 mm 4 m/S 744 mmHg 90%
    20:00 +4°C° 0 mm 4 m/S 744 mmHg 90%
    21:00 +4°C° 0 mm 4 m/S 744 mmHg 91%
    22:00 +4°C° 0 mm 3 m/S 745 mmHg 91%
    23:00 +4°C° 0 mm 3 m/S 745 mmHg 92%
    Mehr zeigen